Year,Month,Day,Hour,Minute,Value (Times are PST for temperature in C)
2014,08,18,00,00,21.40
2014,08,18,00,01,21.40
2014,08,18,00,02,21.40
2014,08,18,00,03,21.40
2014,08,18,00,04,21.40
2014,08,18,00,05,21.40
2014,08,18,00,06,21.40
2014,08,18,00,07,21.40
2014,08,18,00,08,21.30
2014,08,18,00,09,21.30
2014,08,18,00,10,21.30
2014,08,18,00,11,21.30
2014,08,18,00,12,21.30
2014,08,18,00,13,21.30
2014,08,18,00,14,21.30
2014,08,18,00,15,21.30
2014,08,18,00,16,21.30
2014,08,18,00,17,21.30
2014,08,18,00,18,21.30
2014,08,18,00,19,21.30
2014,08,18,00,20,21.30
2014,08,18,00,21,21.30
2014,08,18,00,22,21.30
2014,08,18,00,23,21.20
2014,08,18,00,24,21.20
2014,08,18,00,25,21.20
2014,08,18,00,26,21.20
2014,08,18,00,27,21.20
2014,08,18,00,28,21.20
2014,08,18,00,29,21.20
2014,08,18,00,30,21.20
2014,08,18,00,31,21.20
2014,08,18,00,32,21.20
2014,08,18,00,33,21.10
2014,08,18,00,34,21.10
2014,08,18,00,35,21.10
2014,08,18,00,36,21.10
2014,08,18,00,37,21.10
2014,08,18,00,38,21.10
2014,08,18,00,39,21.10
2014,08,18,00,40,21.00
2014,08,18,00,41,21.00
2014,08,18,00,42,21.00
2014,08,18,00,43,21.00
2014,08,18,00,44,21.00
2014,08,18,00,45,21.00
2014,08,18,00,46,20.90
2014,08,18,00,47,20.90
2014,08,18,00,48,20.90
2014,08,18,00,49,20.90
2014,08,18,00,50,20.90
2014,08,18,00,51,20.90
2014,08,18,00,52,20.90
2014,08,18,00,53,20.90
2014,08,18,00,54,20.90
2014,08,18,00,55,20.90
2014,08,18,00,56,20.90
2014,08,18,00,57,20.90
2014,08,18,00,58,20.90
2014,08,18,00,59,20.80
2014,08,18,01,00,20.80
2014,08,18,01,01,20.80
2014,08,18,01,02,20.80
2014,08,18,01,03,20.80
2014,08,18,01,04,20.80
2014,08,18,01,05,20.70
2014,08,18,01,06,20.70
2014,08,18,01,07,20.70
2014,08,18,01,08,20.70
2014,08,18,01,09,20.70
2014,08,18,01,10,20.70
2014,08,18,01,11,20.60
2014,08,18,01,12,20.60
2014,08,18,01,13,20.60
2014,08,18,01,14,20.60
2014,08,18,01,15,20.60
2014,08,18,01,16,20.60
2014,08,18,01,17,20.60
2014,08,18,01,18,20.60
2014,08,18,01,19,20.60
2014,08,18,01,20,20.50
2014,08,18,01,21,20.50
2014,08,18,01,22,20.50
2014,08,18,01,23,20.40
2014,08,18,01,24,20.40
2014,08,18,01,25,20.40
2014,08,18,01,26,20.40
2014,08,18,01,27,20.30
2014,08,18,01,28,20.30
2014,08,18,01,29,20.30
2014,08,18,01,30,20.30
2014,08,18,01,31,20.30
2014,08,18,01,32,20.30
2014,08,18,01,33,20.30
2014,08,18,01,34,20.30
2014,08,18,01,35,20.30
2014,08,18,01,36,20.30
2014,08,18,01,37,20.30
2014,08,18,01,38,20.30
2014,08,18,01,39,20.30
2014,08,18,01,40,20.30
2014,08,18,01,41,20.30
2014,08,18,01,42,20.30
2014,08,18,01,43,20.20
2014,08,18,01,44,20.20
2014,08,18,01,45,20.20
2014,08,18,01,46,20.20
2014,08,18,01,47,20.20
2014,08,18,01,48,20.20
2014,08,18,01,49,20.20
2014,08,18,01,50,20.20
2014,08,18,01,51,20.20
2014,08,18,01,52,20.20
2014,08,18,01,53,20.20
2014,08,18,01,54,20.10
2014,08,18,01,55,20.10
2014,08,18,01,56,20.10
2014,08,18,01,57,20.10
2014,08,18,01,58,20.10
2014,08,18,01,59,20.10
2014,08,18,02,00,20.10
2014,08,18,02,01,20.10
2014,08,18,02,02,20.00
2014,08,18,02,03,20.00
2014,08,18,02,04,20.00
2014,08,18,02,05,20.00
2014,08,18,02,06,19.90
2014,08,18,02,07,19.90
2014,08,18,02,08,19.90
2014,08,18,02,09,19.90
2014,08,18,02,10,19.90
2014,08,18,02,11,19.90
2014,08,18,02,12,19.90
2014,08,18,02,13,19.90
2014,08,18,02,14,19.90
2014,08,18,02,15,19.80
2014,08,18,02,16,19.80
2014,08,18,02,17,19.80
2014,08,18,02,18,19.80
2014,08,18,02,19,19.80
2014,08,18,02,20,19.80
2014,08,18,02,21,19.80
2014,08,18,02,22,19.80
2014,08,18,02,23,19.70
2014,08,18,02,24,19.70
2014,08,18,02,25,19.70
2014,08,18,02,26,19.70
2014,08,18,02,27,19.60
2014,08,18,02,28,19.60
2014,08,18,02,29,19.60
2014,08,18,02,30,19.60
2014,08,18,02,31,19.50
2014,08,18,02,32,19.50
2014,08,18,02,33,19.50
2014,08,18,02,34,19.40
2014,08,18,02,35,19.40
2014,08,18,02,36,19.40
2014,08,18,02,37,19.40
2014,08,18,02,38,19.30
2014,08,18,02,39,19.30
2014,08,18,02,40,19.30
2014,08,18,02,41,19.30
2014,08,18,02,42,19.30
2014,08,18,02,43,19.30
2014,08,18,02,44,19.30
2014,08,18,02,45,19.30
2014,08,18,02,46,19.30
2014,08,18,02,47,19.30
2014,08,18,02,48,19.30
2014,08,18,02,49,19.40
2014,08,18,02,50,19.40
2014,08,18,02,51,19.40
2014,08,18,02,52,19.40
2014,08,18,02,53,19.40
2014,08,18,02,54,19.40
2014,08,18,02,55,19.40
2014,08,18,02,56,19.30
2014,08,18,02,57,19.30
2014,08,18,02,58,19.30
2014,08,18,02,59,19.30
2014,08,18,03,00,19.30
2014,08,18,03,01,19.30
2014,08,18,03,02,19.30
2014,08,18,03,03,19.20
2014,08,18,03,04,19.20
2014,08,18,03,05,19.20
2014,08,18,03,06,19.20
2014,08,18,03,07,19.10
2014,08,18,03,08,19.10
2014,08,18,03,09,19.10
2014,08,18,03,10,19.10
2014,08,18,03,11,19.10
2014,08,18,03,12,19.00
2014,08,18,03,13,19.00
2014,08,18,03,14,19.00
2014,08,18,03,15,19.00
2014,08,18,03,16,18.90
2014,08,18,03,17,18.90
2014,08,18,03,18,18.90
2014,08,18,03,19,18.90
2014,08,18,03,20,18.90
2014,08,18,03,21,18.90
2014,08,18,03,22,18.80
2014,08,18,03,23,18.80
2014,08,18,03,24,18.80
2014,08,18,03,25,18.80
2014,08,18,03,26,18.80
2014,08,18,03,27,18.80
2014,08,18,03,28,18.80
2014,08,18,03,29,18.80
2014,08,18,03,30,18.70
2014,08,18,03,31,18.70
2014,08,18,03,32,18.80
2014,08,18,03,33,18.70
2014,08,18,03,34,18.70
2014,08,18,03,35,18.70
2014,08,18,03,36,18.70
2014,08,18,03,37,18.70
2014,08,18,03,38,18.60
2014,08,18,03,39,18.60
2014,08,18,03,40,18.60
2014,08,18,03,41,18.60
2014,08,18,03,42,18.60
2014,08,18,03,43,18.60
2014,08,18,03,44,18.60
2014,08,18,03,45,18.60
2014,08,18,03,46,18.50
2014,08,18,03,47,18.50
2014,08,18,03,48,18.50
2014,08,18,03,49,18.50
2014,08,18,03,50,18.40
2014,08,18,03,51,18.40
2014,08,18,03,52,18.40
2014,08,18,03,53,18.40
2014,08,18,03,54,18.40
2014,08,18,03,55,18.40
2014,08,18,03,56,18.40
2014,08,18,03,57,18.30
2014,08,18,03,58,18.30
2014,08,18,03,59,18.30
2014,08,18,04,00,18.30
2014,08,18,04,01,18.30
2014,08,18,04,02,18.30
2014,08,18,04,03,18.30
2014,08,18,04,04,18.20
2014,08,18,04,05,18.20
2014,08,18,04,06,18.20
2014,08,18,04,07,18.20
2014,08,18,04,08,18.20
2014,08,18,04,09,18.20
2014,08,18,04,10,18.20
2014,08,18,04,11,18.20
2014,08,18,04,12,18.20
2014,08,18,04,13,18.20
2014,08,18,04,14,18.20
2014,08,18,04,15,18.20
2014,08,18,04,16,18.20
2014,08,18,04,17,18.20
2014,08,18,04,18,18.20
2014,08,18,04,19,18.10
2014,08,18,04,20,18.10
2014,08,18,04,21,18.10
2014,08,18,04,22,18.10
2014,08,18,04,23,18.20
2014,08,18,04,24,18.10
2014,08,18,04,25,18.10
2014,08,18,04,26,18.10
2014,08,18,04,27,18.20
2014,08,18,04,28,18.20
2014,08,18,04,29,18.20
2014,08,18,04,30,18.20
2014,08,18,04,31,18.20
2014,08,18,04,32,18.20
2014,08,18,04,33,18.20
2014,08,18,04,34,18.20
2014,08,18,04,35,18.30
2014,08,18,04,36,18.20
2014,08,18,04,37,18.20
2014,08,18,04,38,18.20
2014,08,18,04,39,18.20
2014,08,18,04,40,18.20
2014,08,18,04,41,18.20
2014,08,18,04,42,18.20
2014,08,18,04,43,18.20
2014,08,18,04,44,18.20
2014,08,18,04,45,18.20
2014,08,18,04,46,18.20
2014,08,18,04,47,18.20
2014,08,18,04,48,18.20
2014,08,18,04,49,18.20
2014,08,18,04,50,18.20
2014,08,18,04,51,18.20
2014,08,18,04,52,18.20
2014,08,18,04,53,18.20
2014,08,18,04,54,18.20
2014,08,18,04,55,18.20
2014,08,18,04,56,18.20
2014,08,18,04,57,18.20
2014,08,18,04,58,18.30
2014,08,18,04,59,18.30
2014,08,18,05,00,18.30
2014,08,18,05,01,18.30
2014,08,18,05,02,18.30
2014,08,18,05,03,18.30
2014,08,18,05,04,18.30
2014,08,18,05,05,18.30
2014,08,18,05,06,18.30
2014,08,18,05,07,18.30
2014,08,18,05,08,18.30
2014,08,18,05,09,18.30
2014,08,18,05,10,18.30
2014,08,18,05,11,18.30
2014,08,18,05,12,18.30
2014,08,18,05,13,18.30
2014,08,18,05,14,18.30
2014,08,18,05,15,18.30
2014,08,18,05,16,18.30
2014,08,18,05,17,18.30
2014,08,18,05,18,18.40
2014,08,18,05,19,18.40
2014,08,18,05,20,18.40
2014,08,18,05,21,18.30
2014,08,18,05,22,18.30
2014,08,18,05,23,18.30
2014,08,18,05,24,18.30
2014,08,18,05,25,18.30
2014,08,18,05,26,18.30
2014,08,18,05,27,18.30
2014,08,18,05,28,18.30
2014,08,18,05,29,18.30
2014,08,18,05,30,18.30
2014,08,18,05,31,18.30
2014,08,18,05,32,18.30
2014,08,18,05,33,18.40
2014,08,18,05,34,18.40
2014,08,18,05,35,18.40
2014,08,18,05,36,18.40
2014,08,18,05,37,18.30
2014,08,18,05,38,18.40
2014,08,18,05,39,18.30
2014,08,18,05,40,18.30
2014,08,18,05,41,18.30
2014,08,18,05,42,18.30
2014,08,18,05,43,18.30
2014,08,18,05,44,18.30
2014,08,18,05,45,18.20
2014,08,18,05,46,18.20
2014,08,18,05,47,18.20
2014,08,18,05,48,18.20
2014,08,18,05,49,18.20
2014,08,18,05,50,18.20
2014,08,18,05,51,18.10
2014,08,18,05,52,18.10
2014,08,18,05,53,18.10
2014,08,18,05,54,18.10
2014,08,18,05,55,18.10
2014,08,18,05,56,18.10
2014,08,18,05,57,18.00
2014,08,18,05,58,18.00
2014,08,18,05,59,18.00
2014,08,18,06,00,18.00
2014,08,18,06,01,17.90
2014,08,18,06,02,17.90
2014,08,18,06,03,17.90
2014,08,18,06,04,17.90
2014,08,18,06,05,17.90
2014,08,18,06,06,17.90
2014,08,18,06,07,17.80
2014,08,18,06,08,17.80
2014,08,18,06,09,17.80
2014,08,18,06,10,17.80
2014,08,18,06,11,17.80
2014,08,18,06,12,17.80
2014,08,18,06,13,17.80
2014,08,18,06,14,17.80
2014,08,18,06,15,17.80
2014,08,18,06,16,17.80
2014,08,18,06,17,17.80
2014,08,18,06,18,17.80
2014,08,18,06,19,17.80
2014,08,18,06,20,17.80
2014,08,18,06,21,17.80
2014,08,18,06,22,17.80
2014,08,18,06,23,17.80
2014,08,18,06,24,17.80
2014,08,18,06,25,17.80
2014,08,18,06,26,17.80
2014,08,18,06,27,17.80
2014,08,18,06,28,17.80
2014,08,18,06,29,17.80
2014,08,18,06,30,17.80
2014,08,18,06,31,17.80
2014,08,18,06,32,17.80
2014,08,18,06,33,17.80
2014,08,18,06,34,17.90
2014,08,18,06,35,17.90
2014,08,18,06,36,17.90
2014,08,18,06,37,17.90
2014,08,18,06,38,17.90
2014,08,18,06,39,18.00
2014,08,18,06,40,18.00
2014,08,18,06,41,18.00
2014,08,18,06,42,18.10
2014,08,18,06,43,18.10
2014,08,18,06,44,18.00
2014,08,18,06,45,18.00
2014,08,18,06,46,18.00
2014,08,18,06,47,18.00
2014,08,18,06,48,18.00
2014,08,18,06,49,18.00
2014,08,18,06,50,18.00
2014,08,18,06,51,17.90
2014,08,18,06,52,17.90
2014,08,18,06,53,17.90
2014,08,18,06,54,17.90
2014,08,18,06,55,17.90
2014,08,18,06,56,17.90
2014,08,18,06,57,17.90
2014,08,18,06,58,17.90
2014,08,18,06,59,17.90
2014,08,18,07,00,17.90
2014,08,18,07,01,17.90
2014,08,18,07,02,18.00
2014,08,18,07,03,18.00
2014,08,18,07,04,18.00
2014,08,18,07,05,18.10
2014,08,18,07,06,18.10
2014,08,18,07,07,18.10
2014,08,18,07,08,18.20
2014,08,18,07,09,18.20
2014,08,18,07,10,18.30
2014,08,18,07,11,18.30
2014,08,18,07,12,18.30
2014,08,18,07,13,18.30
2014,08,18,07,14,18.30
2014,08,18,07,15,18.40
2014,08,18,07,16,18.40
2014,08,18,07,17,18.40
2014,08,18,07,18,18.40
2014,08,18,07,19,18.50
2014,08,18,07,20,18.50
2014,08,18,07,21,18.50
2014,08,18,07,22,18.50
2014,08,18,07,23,18.60
2014,08,18,07,24,18.60
2014,08,18,07,25,18.60
2014,08,18,07,26,18.60
2014,08,18,07,27,18.60
2014,08,18,07,28,18.60
2014,08,18,07,29,18.60
2014,08,18,07,30,18.60
2014,08,18,07,31,18.60
2014,08,18,07,32,18.60
2014,08,18,07,33,18.70
2014,08,18,07,34,18.70
2014,08,18,07,35,18.70
2014,08,18,07,36,18.70
2014,08,18,07,37,18.70
2014,08,18,07,38,18.70
2014,08,18,07,39,18.80
2014,08,18,07,40,18.80
2014,08,18,07,41,18.80
2014,08,18,07,42,18.80
2014,08,18,07,43,18.80
2014,08,18,07,44,18.90
2014,08,18,07,45,18.90
2014,08,18,07,46,18.90
2014,08,18,07,47,18.90
2014,08,18,07,48,18.90
2014,08,18,07,49,18.90
2014,08,18,07,50,19.00
2014,08,18,07,51,19.00
2014,08,18,07,52,19.00
2014,08,18,07,53,19.00
2014,08,18,07,54,19.00
2014,08,18,07,55,19.00
2014,08,18,07,56,19.00
2014,08,18,07,57,19.00
2014,08,18,07,58,19.00
2014,08,18,07,59,19.00
2014,08,18,08,00,19.00
2014,08,18,08,01,19.10
2014,08,18,08,02,19.10
2014,08,18,08,03,19.10
2014,08,18,08,04,19.10
2014,08,18,08,05,19.10
2014,08,18,08,06,19.10
2014,08,18,08,07,19.10
2014,08,18,08,08,19.10
2014,08,18,08,09,19.10
2014,08,18,08,10,19.20
2014,08,18,08,11,19.20
2014,08,18,08,12,19.20
2014,08,18,08,13,19.20
2014,08,18,08,14,19.30
2014,08,18,08,15,19.30
2014,08,18,08,16,19.30
2014,08,18,08,17,19.30
2014,08,18,08,18,19.40
2014,08,18,08,19,19.40
2014,08,18,08,20,19.40
2014,08,18,08,21,19.50
2014,08,18,08,22,19.50
2014,08,18,08,23,19.60
2014,08,18,08,24,19.60
2014,08,18,08,25,19.70
2014,08,18,08,26,19.70
2014,08,18,08,27,19.70
2014,08,18,08,28,19.70
2014,08,18,08,29,19.80
2014,08,18,08,30,19.80
2014,08,18,08,31,19.80
2014,08,18,08,32,19.80
2014,08,18,08,33,19.80
2014,08,18,08,34,19.80
2014,08,18,08,35,19.80
2014,08,18,08,36,19.90
2014,08,18,08,37,19.90
2014,08,18,08,38,19.90
2014,08,18,08,39,19.90
2014,08,18,08,40,20.00
2014,08,18,08,41,20.00
2014,08,18,08,42,20.10
2014,08,18,08,43,20.10
2014,08,18,08,44,20.10
2014,08,18,08,45,20.20
2014,08,18,08,46,20.20
2014,08,18,08,47,20.20
2014,08,18,08,48,20.20
2014,08,18,08,49,20.30
2014,08,18,08,50,20.30
2014,08,18,08,51,20.30
2014,08,18,08,52,20.30
2014,08,18,08,53,20.40
2014,08,18,08,54,20.40
2014,08,18,08,55,20.50
2014,08,18,08,56,20.40
2014,08,18,08,57,20.40
2014,08,18,08,58,20.30
2014,08,18,08,59,20.30
2014,08,18,09,00,20.30
2014,08,18,09,01,20.30
2014,08,18,09,02,20.30
2014,08,18,09,03,20.30
2014,08,18,09,04,20.30
2014,08,18,09,05,20.20
2014,08,18,09,06,20.20
2014,08,18,09,07,20.30
2014,08,18,09,08,20.30
2014,08,18,09,09,20.30
2014,08,18,09,10,20.20
2014,08,18,09,11,20.20
2014,08,18,09,12,20.20
2014,08,18,09,13,20.20
2014,08,18,09,14,20.20
2014,08,18,09,15,20.30
2014,08,18,09,16,20.30
2014,08,18,09,17,20.30
2014,08,18,09,18,20.40
2014,08,18,09,19,20.40
2014,08,18,09,20,20.40
2014,08,18,09,21,20.40
2014,08,18,09,22,20.40
2014,08,18,09,23,20.40
2014,08,18,09,24,20.40
2014,08,18,09,25,20.50
2014,08,18,09,26,20.50
2014,08,18,09,27,20.50
2014,08,18,09,28,20.50
2014,08,18,09,29,20.50
2014,08,18,09,30,20.40
2014,08,18,09,31,20.40
2014,08,18,09,32,20.30
2014,08,18,09,33,20.30
2014,08,18,09,34,20.30
2014,08,18,09,35,20.30
2014,08,18,09,36,20.30
2014,08,18,09,37,20.30
2014,08,18,09,38,20.30
2014,08,18,09,39,20.30
2014,08,18,09,40,20.30
2014,08,18,09,41,20.30
2014,08,18,09,42,20.30
2014,08,18,09,43,20.30
2014,08,18,09,44,20.30
2014,08,18,09,45,20.30
2014,08,18,09,46,20.30
2014,08,18,09,47,20.20
2014,08,18,09,48,20.20
2014,08,18,09,49,20.20
2014,08,18,09,50,20.10
2014,08,18,09,51,20.10
2014,08,18,09,52,20.10
2014,08,18,09,53,20.00
2014,08,18,09,54,19.90
2014,08,18,09,55,19.90
2014,08,18,09,56,19.90
2014,08,18,09,57,19.90
2014,08,18,09,58,19.90
2014,08,18,09,59,19.90
2014,08,18,10,00,19.80
2014,08,18,10,01,19.80
2014,08,18,10,02,19.90
2014,08,18,10,03,19.90
2014,08,18,10,04,19.90
2014,08,18,10,05,20.00
2014,08,18,10,06,20.00
2014,08,18,10,07,20.10
2014,08,18,10,08,20.20
2014,08,18,10,09,20.20
2014,08,18,10,10,20.30
2014,08,18,10,11,20.30
2014,08,18,10,12,20.30
2014,08,18,10,13,20.40
2014,08,18,10,14,20.50
2014,08,18,10,15,20.50
2014,08,18,10,16,20.60
2014,08,18,10,17,20.60
2014,08,18,10,18,20.60
2014,08,18,10,19,20.60
2014,08,18,10,20,20.60
2014,08,18,10,21,20.60
2014,08,18,10,22,20.60
2014,08,18,10,23,20.50
2014,08,18,10,24,20.40
2014,08,18,10,25,20.40
2014,08,18,10,26,20.40
2014,08,18,10,27,20.30
2014,08,18,10,28,20.30
2014,08,18,10,29,20.30
2014,08,18,10,30,20.20
2014,08,18,10,31,20.30
2014,08,18,10,32,20.30
2014,08,18,10,33,20.30
2014,08,18,10,34,20.30
2014,08,18,10,35,20.40
2014,08,18,10,36,20.40
2014,08,18,10,37,20.40
2014,08,18,10,38,20.50
2014,08,18,10,39,20.50
2014,08,18,10,40,20.50
2014,08,18,10,41,20.50
2014,08,18,10,42,20.40
2014,08,18,10,43,20.40
2014,08,18,10,44,20.40
2014,08,18,10,45,20.40
2014,08,18,10,46,20.40
2014,08,18,10,47,20.40
2014,08,18,10,48,20.40
2014,08,18,10,49,20.50
2014,08,18,10,50,20.50
2014,08,18,10,51,20.40
2014,08,18,10,52,20.40
2014,08,18,10,53,20.40
2014,08,18,10,54,20.40
2014,08,18,10,55,20.30
2014,08,18,10,56,20.30
2014,08,18,10,57,20.30
2014,08,18,10,58,20.20
2014,08,18,10,59,20.20
2014,08,18,11,00,20.20
2014,08,18,11,01,20.20
2014,08,18,11,02,20.20
2014,08,18,11,03,20.20
2014,08,18,11,04,20.30
2014,08,18,11,05,20.30
2014,08,18,11,06,20.40
2014,08,18,11,07,20.50
2014,08,18,11,08,20.50
2014,08,18,11,09,20.60
2014,08,18,11,10,20.60
2014,08,18,11,11,20.60
2014,08,18,11,12,20.60
2014,08,18,11,13,20.60
2014,08,18,11,14,20.60
2014,08,18,11,15,20.60
2014,08,18,11,16,20.60
2014,08,18,11,17,20.60
2014,08,18,11,18,20.60
2014,08,18,11,19,20.60
2014,08,18,11,20,20.70
2014,08,18,11,21,20.70
2014,08,18,11,22,20.70
2014,08,18,11,23,20.70
2014,08,18,11,24,20.80
2014,08,18,11,25,20.80
2014,08,18,11,26,20.90
2014,08,18,11,27,21.00
2014,08,18,11,28,21.00
2014,08,18,11,29,21.10
2014,08,18,11,30,21.10
2014,08,18,11,31,21.20
2014,08,18,11,32,21.20
2014,08,18,11,33,21.30
2014,08,18,11,34,21.40
2014,08,18,11,35,21.40
2014,08,18,11,36,21.40
2014,08,18,11,37,21.30
2014,08,18,11,38,21.40
2014,08,18,11,39,21.40
2014,08,18,11,40,21.50
2014,08,18,11,41,21.60
2014,08,18,11,42,21.70
2014,08,18,11,43,21.70
2014,08,18,11,44,21.80
2014,08,18,11,45,21.90
2014,08,18,11,46,21.90
2014,08,18,11,47,21.90
2014,08,18,11,48,21.90
2014,08,18,11,49,22.00
2014,08,18,11,50,22.10
2014,08,18,11,51,22.10
2014,08,18,11,52,22.10
2014,08,18,11,53,22.20
2014,08,18,11,54,22.20
2014,08,18,11,55,22.30
2014,08,18,11,56,22.30
2014,08,18,11,57,22.40
2014,08,18,11,58,22.40
2014,08,18,11,59,22.50
2014,08,18,12,00,22.50
2014,08,18,12,01,22.60
2014,08,18,12,02,22.60
2014,08,18,12,03,22.80
2014,08,18,12,04,22.80
2014,08,18,12,05,22.90
2014,08,18,12,06,23.00
2014,08,18,12,07,23.10
2014,08,18,12,08,23.20
2014,08,18,12,09,23.30
2014,08,18,12,10,23.30
2014,08,18,12,11,23.30
2014,08,18,12,12,23.40
2014,08,18,12,13,23.30
2014,08,18,12,14,23.10
2014,08,18,12,15,23.00
2014,08,18,12,16,22.80
2014,08,18,12,17,22.60
2014,08,18,12,18,22.50
2014,08,18,12,19,22.40
2014,08,18,12,20,22.20
2014,08,18,12,21,22.00
2014,08,18,12,22,21.90
2014,08,18,12,23,21.80
2014,08,18,12,24,21.60
2014,08,18,12,25,21.50
2014,08,18,12,26,21.40
2014,08,18,12,27,21.30
2014,08,18,12,28,21.20
2014,08,18,12,29,21.10
2014,08,18,12,30,21.10
2014,08,18,12,31,21.10
2014,08,18,12,32,21.00
2014,08,18,12,33,20.90
2014,08,18,12,34,21.00
2014,08,18,12,35,21.00
2014,08,18,12,36,21.00
2014,08,18,12,37,21.10
2014,08,18,12,38,21.10
2014,08,18,12,39,21.10
2014,08,18,12,40,21.10
2014,08,18,12,41,21.10
2014,08,18,12,42,21.10
2014,08,18,12,43,21.10
2014,08,18,12,44,21.10
2014,08,18,12,45,21.10
2014,08,18,12,46,21.20
2014,08,18,12,47,21.20
2014,08,18,12,48,21.20
2014,08,18,12,49,21.10
2014,08,18,12,50,21.10
2014,08,18,12,51,21.00
2014,08,18,12,52,21.00
2014,08,18,12,53,20.90
2014,08,18,12,54,20.90
2014,08,18,12,55,20.90
2014,08,18,12,56,20.90
2014,08,18,12,57,21.00
2014,08,18,12,58,21.00
2014,08,18,12,59,21.10
2014,08,18,13,00,21.10
2014,08,18,13,01,21.20
2014,08,18,13,02,21.30
2014,08,18,13,03,21.30
2014,08,18,13,04,21.40
2014,08,18,13,05,21.40
2014,08,18,13,06,21.30
2014,08,18,13,07,21.30
2014,08,18,13,08,21.40
2014,08,18,13,09,21.40
2014,08,18,13,10,21.50
2014,08,18,13,11,21.60
2014,08,18,13,12,21.60
2014,08,18,13,13,21.70
2014,08,18,13,14,21.80
2014,08,18,13,15,21.80
2014,08,18,13,16,21.90
2014,08,18,13,17,22.00
2014,08,18,13,18,22.00
2014,08,18,13,19,22.10
2014,08,18,13,20,22.10
2014,08,18,13,21,22.10
2014,08,18,13,22,22.20
2014,08,18,13,23,22.20
2014,08,18,13,24,22.20
2014,08,18,13,25,22.20
2014,08,18,13,26,22.30
2014,08,18,13,27,22.30
2014,08,18,13,28,22.30
2014,08,18,13,29,22.40
2014,08,18,13,30,22.40
2014,08,18,13,31,22.40
2014,08,18,13,32,22.40
2014,08,18,13,33,22.40
2014,08,18,13,34,22.50
2014,08,18,13,35,22.60
2014,08,18,13,36,22.70
2014,08,18,13,37,22.80
2014,08,18,13,38,22.90
2014,08,18,13,39,23.00
2014,08,18,13,40,23.00
2014,08,18,13,41,23.00
2014,08,18,13,42,23.10
2014,08,18,13,43,23.10
2014,08,18,13,44,23.10
2014,08,18,13,45,23.10
2014,08,18,13,46,23.10
2014,08,18,13,47,23.10
2014,08,18,13,48,23.10
2014,08,18,13,49,23.10
2014,08,18,13,50,23.10
2014,08,18,13,51,23.10
2014,08,18,13,52,23.10
2014,08,18,13,53,23.10
2014,08,18,13,54,23.10
2014,08,18,13,55,23.10
2014,08,18,13,56,23.10
2014,08,18,13,57,23.10
2014,08,18,13,58,23.00
2014,08,18,13,59,23.00
2014,08,18,14,00,22.90
2014,08,18,14,01,22.90
2014,08,18,14,02,22.80
2014,08,18,14,03,22.80
2014,08,18,14,04,22.80
2014,08,18,14,05,22.80
2014,08,18,14,06,22.80
2014,08,18,14,07,22.70
2014,08,18,14,08,22.70
2014,08,18,14,09,22.70
2014,08,18,14,10,22.60
2014,08,18,14,11,22.60
2014,08,18,14,12,22.50
2014,08,18,14,13,22.50
2014,08,18,14,14,22.60
2014,08,18,14,15,22.60
2014,08,18,14,16,22.60
2014,08,18,14,17,22.70
2014,08,18,14,18,22.80
2014,08,18,14,19,22.90
2014,08,18,14,20,23.10
2014,08,18,14,21,23.20
2014,08,18,14,22,23.30
2014,08,18,14,23,23.50
2014,08,18,14,24,23.60
2014,08,18,14,25,23.60
2014,08,18,14,26,23.60
2014,08,18,14,27,23.60
2014,08,18,14,28,23.60
2014,08,18,14,29,23.70
2014,08,18,14,30,23.70
2014,08,18,14,31,23.80
2014,08,18,14,32,23.90
2014,08,18,14,33,24.00
2014,08,18,14,34,24.10
2014,08,18,14,35,24.20
2014,08,18,14,36,24.20
2014,08,18,14,37,24.20
2014,08,18,14,38,24.20
2014,08,18,14,39,24.20
2014,08,18,14,40,24.10
2014,08,18,14,41,24.10
2014,08,18,14,42,24.10
2014,08,18,14,43,24.10
2014,08,18,14,44,24.00
2014,08,18,14,45,24.00
2014,08,18,14,46,23.90
2014,08,18,14,47,23.90
2014,08,18,14,48,23.80
2014,08,18,14,49,23.80
2014,08,18,14,50,23.70
2014,08,18,14,51,23.70
2014,08,18,14,52,23.70
2014,08,18,14,53,23.70
2014,08,18,14,54,23.70
2014,08,18,14,55,23.60
2014,08,18,14,56,23.60
2014,08,18,14,57,23.60
2014,08,18,14,58,23.50
2014,08,18,14,59,23.50
2014,08,18,15,00,23.60
2014,08,18,15,01,23.60
2014,08,18,15,02,23.70
2014,08,18,15,03,23.70
2014,08,18,15,04,23.70
2014,08,18,15,05,23.70
2014,08,18,15,06,23.80
2014,08,18,15,07,23.80
2014,08,18,15,08,23.80
2014,08,18,15,09,23.80
2014,08,18,15,10,23.80
2014,08,18,15,11,23.80
2014,08,18,15,12,23.80
2014,08,18,15,13,23.80
2014,08,18,15,14,23.90
2014,08,18,15,15,23.90
2014,08,18,15,16,23.80
2014,08,18,15,17,23.80
2014,08,18,15,18,23.90
2014,08,18,15,19,23.80
2014,08,18,15,20,23.90
2014,08,18,15,21,23.90
2014,08,18,15,22,23.90
2014,08,18,15,23,23.90
2014,08,18,15,24,23.90
2014,08,18,15,25,23.80
2014,08,18,15,26,23.80
2014,08,18,15,27,23.90
2014,08,18,15,28,23.90
2014,08,18,15,29,24.00
2014,08,18,15,30,24.10
2014,08,18,15,31,24.10
2014,08,18,15,32,24.20
2014,08,18,15,33,24.20
2014,08,18,15,34,24.10
2014,08,18,15,35,24.10
2014,08,18,15,36,24.00
2014,08,18,15,37,23.90
2014,08,18,15,38,23.90
2014,08,18,15,39,24.00
2014,08,18,15,40,24.00
2014,08,18,15,41,24.10
2014,08,18,15,42,24.10
2014,08,18,15,43,24.10
2014,08,18,15,44,24.20
2014,08,18,15,45,24.20
2014,08,18,15,46,24.20
2014,08,18,15,47,24.20
2014,08,18,15,48,24.20
2014,08,18,15,49,24.30
2014,08,18,15,50,24.30
2014,08,18,15,51,24.30
2014,08,18,15,52,24.30
2014,08,18,15,53,24.30
2014,08,18,15,54,24.30
2014,08,18,15,55,24.30
2014,08,18,15,56,24.40
2014,08,18,15,57,24.40
2014,08,18,15,58,24.50
2014,08,18,15,59,24.50
2014,08,18,16,00,24.50
2014,08,18,16,01,24.60
2014,08,18,16,02,24.50
2014,08,18,16,03,24.50
2014,08,18,16,04,24.50
2014,08,18,16,05,24.50
2014,08,18,16,06,24.40
2014,08,18,16,07,24.40
2014,08,18,16,08,24.40
2014,08,18,16,09,24.30
2014,08,18,16,10,24.40
2014,08,18,16,11,24.40
2014,08,18,16,12,24.40
2014,08,18,16,13,24.50
2014,08,18,16,14,24.50
2014,08,18,16,15,24.50
2014,08,18,16,16,24.50
2014,08,18,16,17,24.50
2014,08,18,16,18,24.60
2014,08,18,16,19,24.60
2014,08,18,16,20,24.60
2014,08,18,16,21,24.60
2014,08,18,16,22,24.60
2014,08,18,16,23,24.60
2014,08,18,16,24,24.70
2014,08,18,16,25,24.70
2014,08,18,16,26,24.70
2014,08,18,16,27,24.70
2014,08,18,16,28,24.70
2014,08,18,16,29,24.70
2014,08,18,16,30,24.70
2014,08,18,16,31,24.70
2014,08,18,16,32,24.60
2014,08,18,16,33,24.60
2014,08,18,16,34,24.60
2014,08,18,16,35,24.60
2014,08,18,16,36,24.60
2014,08,18,16,37,24.70
2014,08,18,16,38,24.70
2014,08,18,16,39,24.70
2014,08,18,16,40,24.70
2014,08,18,16,41,24.70
2014,08,18,16,42,24.60
2014,08,18,16,43,24.60
2014,08,18,16,44,24.60
2014,08,18,16,45,24.60
2014,08,18,16,46,24.60
2014,08,18,16,47,24.60
2014,08,18,16,48,24.60
2014,08,18,16,49,24.60
2014,08,18,16,50,24.60
2014,08,18,16,51,24.60
2014,08,18,16,52,24.50
2014,08,18,16,53,24.50
2014,08,18,16,54,24.50
2014,08,18,16,55,24.50
2014,08,18,16,56,24.50
2014,08,18,16,57,24.60
2014,08,18,16,58,24.60
2014,08,18,16,59,24.60
2014,08,18,17,00,24.60
2014,08,18,17,01,24.60
2014,08,18,17,02,24.60
2014,08,18,17,03,24.60
2014,08,18,17,04,24.60
2014,08,18,17,05,24.70
2014,08,18,17,06,24.70
2014,08,18,17,07,24.70
2014,08,18,17,08,24.70
2014,08,18,17,09,24.70
2014,08,18,17,10,24.70
2014,08,18,17,11,24.70
2014,08,18,17,12,24.70
2014,08,18,17,13,24.70
2014,08,18,17,14,24.70
2014,08,18,17,15,24.80
2014,08,18,17,16,24.70
2014,08,18,17,17,24.70
2014,08,18,17,18,24.70
2014,08,18,17,19,24.70